Weather reports worldwide

Advertisment
Palermo/Punta Raisi, Italy (16405): temperature & dewpoint: 19.09.2020 02:00:00 - 25.09.2020 02:00:00 (CEST)Palermo/Punta Raisi, Italy (16405): wind speed: 19.09.2020 02:00:00 - 25.09.2020 02:00:00 (CEST)Palermo/Punta Raisi, Italy (16405): wind direction: 19.09.2020 02:00:00 - 25.09.2020 02:00:00 (CEST)Palermo/Punta Raisi, Italy (16405): reduced air pressure: 19.09.2020 02:00:00 - 25.09.2020 02:00:00 (CEST)Palermo/Punta Raisi, Italy (16405): visibility: 19.09.2020 02:00:00 - 25.09.2020 02:00:00 (CEST)Palermo/Punta Raisi, Italy (16405): precipitation: 19.09.2020 02:00:00 - 25.09.2020 02:00:00 (CEST)
Date & Time tt [°C] td [°C] ff [km/h] ff [kn] dd ppp [hPa] vv [km] rr [mm]
25.09.2020 02:00:00 28,1 11,3 26 14 SSW 1012,2 10 -
25.09.2020 01:00:00 28,0 10,0 24 13 SSW - 10 -
25.09.2020 00:00:00 28,0 9,0 22 12 SSW - 10 -
24.09.2020 23:00:00 27,7 10,8 16 9 SSW 1014,1 10 0,0
24.09.2020 22:00:00 27,0 14,0 13 7 SSW - 10 -
24.09.2020 21:00:00 27,0 17,0 18 10 SSW - 10 -
24.09.2020 20:00:00 27,5 17,0 15 8 SSW 1014,5 10 -
24.09.2020 19:00:00 28,0 21,0 9 5 W - 10 -
24.09.2020 18:00:00 29,0 19,0 9 5 WSW - 10 -
24.09.2020 17:00:00 28,1 20,3 9 5 WSW 1014,8 10 0,0
24.09.2020 16:00:00 28,0 21,0 11 6 W - 10 -
24.09.2020 15:00:00 28,0 20,0 11 6 W - 10 -
24.09.2020 14:00:00 27,5 20,3 16 9 WNW 1015,2 10 -
24.09.2020 13:00:00 28,0 18,0 13 7 W - 10 -
24.09.2020 12:00:00 28,0 15,0 21 11 WSW - 10 -
24.09.2020 11:00:00 27,3 15,1 22 12 WSW 1015,6 10 0,0
24.09.2020 10:00:00 28,0 10,0 15 8 SSW - 10 -
24.09.2020 09:00:00 27,0 10,0 8 4 SSW - 10 -
24.09.2020 08:00:00 22,6 11,2 15 8 SSW 1015,0 10 -
24.09.2020 07:00:00 22,0 10,0 5 3 S - 10 -
24.09.2020 06:00:00 - - - - - - - -
24.09.2020 05:00:00 23,4 9,9 13 7 SSE 1014,2 10 0,0
24.09.2020 04:00:00 23,0 12,0 11 6 S - 10 -
24.09.2020 03:00:00 22,0 16,0 9 5 S - 10 -
24.09.2020 02:00:00 23,6 18,5 8 4 SSE 1015,0 10 -
24.09.2020 01:00:00 23,0 18,0 8 4 SSE - 10 -
24.09.2020 00:00:00 23,0 17,0 8 4 S - 10 -
23.09.2020 23:00:00 23,6 17,6 4 2 - 1015,4 10 0,0
23.09.2020 22:00:00 25,0 19,0 5 3 WSW - 10 -
23.09.2020 21:00:00 26,0 20,0 8 4 WNW - 10 -
23.09.2020 20:00:00 25,8 20,2 18 10 WNW 1014,3 10 -
23.09.2020 19:00:00 26,0 20,0 24 13 W - 10 -
23.09.2020 18:00:00 26,0 20,0 11 6 WNW - 10 -
23.09.2020 17:00:00 26,2 21,5 13 7 WNW 1013,6 10 0,0
23.09.2020 16:00:00 26,0 22,0 11 6 NW - 10 -
23.09.2020 15:00:00 27,0 22,0 16 9 NW - 10 -
23.09.2020 14:00:00 26,9 22,5 16 9 NW 1014,0 10 -
23.09.2020 13:00:00 27,0 21,0 15 8 NW - 10 -
23.09.2020 12:00:00 28,0 20,0 11 6 W - 10 -
23.09.2020 11:00:00 26,8 20,5 15 8 WSW 1014,9 10 0,0
23.09.2020 10:00:00 26,0 20,0 15 8 WSW - 10 -
23.09.2020 09:00:00 27,0 21,0 8 4 W - 10 -
23.09.2020 08:00:00 26,4 16,7 8 4 S 1013,9 10 -
23.09.2020 07:00:00 26,0 18,0 11 6 SSW - 10 -
23.09.2020 06:00:00 26,0 19,0 16 9 SSW - 10 -
23.09.2020 05:00:00 25,6 19,6 21 11 SW 1013,3 10 0,0
23.09.2020 04:00:00 26,0 18,0 21 11 SSW - 10 -
23.09.2020 03:00:00 26,0 18,0 22 12 SSW - 10 -
23.09.2020 02:00:00 26,9 17,4 21 11 SSW 1014,5 10 -
23.09.2020 01:00:00 27,0 18,0 21 11 SSW - 10 -
23.09.2020 00:00:00 26,0 19,0 21 11 SW - 10 -
22.09.2020 23:00:00 26,4 19,7 18 10 SW 1015,3 10 0,0
22.09.2020 22:00:00 27,0 20,0 15 8 SW - 10 -
22.09.2020 21:00:00 26,0 21,0 8 4 NE - 10 -
22.09.2020 20:00:00 26,5 20,9 16 9 ENE 1014,5 10 -
22.09.2020 19:00:00 27,0 21,0 16 9 ENE - 10 -
22.09.2020 18:00:00 27,0 21,0 11 6 NE - 10 -
22.09.2020 17:00:00 27,8 20,5 13 7 NE 1014,7 10 0,0
22.09.2020 16:00:00 29,0 20,0 15 8 ENE - 10 -
22.09.2020 15:00:00 29,0 21,0 8 4 N - 10 -
22.09.2020 14:00:00 28,5 21,7 13 7 W 1015,6 10 -
22.09.2020 13:00:00 29,0 21,0 16 9 WSW - 10 -
22.09.2020 12:00:00 30,0 17,0 22 12 SW - 10 -
22.09.2020 11:00:00 28,9 18,3 22 12 SSW 1015,8 10 0,0
22.09.2020 10:00:00 27,0 18,0 15 8 S - 10 -
22.09.2020 09:00:00 25,0 20,0 11 6 S - 10 -
22.09.2020 08:00:00 24,8 20,0 21 11 SSW 1015,9 10 -
22.09.2020 07:00:00 26,0 18,0 11 6 S - 10 -
22.09.2020 06:00:00 25,0 16,0 13 7 SSW - 10 -
22.09.2020 05:00:00 25,0 15,7 11 6 SSE 1015,3 10 0,0
22.09.2020 04:00:00 25,0 17,0 9 5 SSE - 10 -
22.09.2020 03:00:00 25,0 20,0 11 6 SSW - 10 -
22.09.2020 02:00:00 25,2 20,0 11 6 SSW 1016,1 10 -
22.09.2020 01:00:00 25,0 19,0 8 4 S - 10 -
22.09.2020 00:00:00 26,0 20,0 5 3 SW - 10 -
21.09.2020 23:00:00 25,8 19,6 11 6 ENE 1016,5 10 0,0
21.09.2020 22:00:00 26,0 20,0 9 5 NNE - 10 -
21.09.2020 21:00:00 26,0 20,0 8 4 N - 10 -
21.09.2020 20:00:00 26,2 19,6 8 4 N 1016,2 10 -
21.09.2020 19:00:00 26,0 20,0 9 5 NW - 10 -
21.09.2020 18:00:00 27,0 21,0 13 7 WNW - 10 -
21.09.2020 17:00:00 27,2 20,6 15 8 WNW 1015,8 10 0,0
21.09.2020 16:00:00 27,0 20,0 16 9 WNW - 10 -
21.09.2020 15:00:00 28,0 20,0 21 11 WNW - 10 -
21.09.2020 14:00:00 27,3 21,2 15 8 W 1016,6 10 -
21.09.2020 13:00:00 27,0 20,0 15 8 W - 10 -
21.09.2020 12:00:00 27,0 20,0 11 6 SW - 10 -
21.09.2020 11:00:00 26,9 20,6 4 2 - 1016,8 10 0,0
21.09.2020 10:00:00 27,0 21,0 9 5 S - 10 -
21.09.2020 09:00:00 26,0 20,0 8 4 SSW - 10 -
21.09.2020 08:00:00 23,6 19,0 8 4 S 1016,1 10 -
21.09.2020 07:00:00 23,0 20,0 8 4 SSW - 10 -
21.09.2020 06:00:00 23,0 19,0 8 4 S - 10 -
21.09.2020 05:00:00 24,1 19,6 8 4 S 1015,3 10 0,0
21.09.2020 04:00:00 25,0 20,0 11 6 S - 10 -
21.09.2020 03:00:00 25,0 20,0 13 7 S - 10 -
21.09.2020 02:00:00 24,8 19,2 8 4 S 1016,5 10 -
21.09.2020 01:00:00 26,0 18,0 13 7 SSW - 10 -
21.09.2020 00:00:00 25,0 16,0 15 8 SSW - 10 -
20.09.2020 23:00:00 24,1 20,2 5 3 S 1016,3 10 0,0
20.09.2020 22:00:00 25,0 21,0 5 3 ESE - 10 -
20.09.2020 21:00:00 26,0 22,0 9 5 W - 10 -
20.09.2020 20:00:00 26,1 21,5 9 5 WSW 1015,6 10 -
20.09.2020 19:00:00 27,0 21,0 8 4 WNW - 10 -
20.09.2020 18:00:00 27,0 20,0 13 7 ENE - 10 -
20.09.2020 17:00:00 27,2 21,4 15 8 N 1015,7 10 0,0
20.09.2020 16:00:00 28,0 21,0 13 7 NNE - 10 -
20.09.2020 15:00:00 27,0 21,0 11 6 NNE - 10 -
20.09.2020 14:00:00 27,3 20,7 15 8 NNE 1016,1 10 -
20.09.2020 13:00:00 27,0 22,0 11 6 NNW - 10 -
20.09.2020 12:00:00 27,0 21,0 8 4 W - 10 -
20.09.2020 11:00:00 26,3 21,0 8 4 W 1016,7 10 0,0
20.09.2020 10:00:00 25,0 19,0 11 6 WSW - 10 -
20.09.2020 09:00:00 26,0 19,0 5 3 N - 10 -
20.09.2020 08:00:00 23,3 20,0 8 4 E 1016,0 10 -
20.09.2020 07:00:00 23,0 19,0 9 5 SSE - 10 -
20.09.2020 06:00:00 23,0 19,0 8 4 SSE - 10 -
20.09.2020 05:00:00 23,2 19,5 5 3 SSE 1016,0 10 0,0
20.09.2020 04:00:00 23,0 19,0 11 6 SSE - 10 -
20.09.2020 03:00:00 24,0 20,0 9 5 SSE - 10 -
20.09.2020 02:00:00 24,4 20,0 9 5 SSE 1016,8 10 -
20.09.2020 01:00:00 24,0 20,0 8 4 SSE - 10 -
20.09.2020 00:00:00 25,0 19,0 8 4 SE - 10 -
19.09.2020 23:00:00 24,8 18,9 8 4 SE 1017,4 10 0,0
19.09.2020 22:00:00 25,0 19,0 5 3 SE - 10 -
19.09.2020 21:00:00 26,0 20,0 5 3 NE - 10 -
19.09.2020 20:00:00 25,9 20,6 8 4 NE 1016,6 10 -
19.09.2020 19:00:00 26,0 21,0 8 4 NNE - 10 -
19.09.2020 18:00:00 27,0 21,0 11 6 NNE - 10 -
19.09.2020 17:00:00 27,0 20,7 9 5 NNE 1016,5 10 0,0
19.09.2020 16:00:00 27,0 21,0 11 6 NNE - 10 -
19.09.2020 15:00:00 28,0 21,0 9 5 N - 10 -
19.09.2020 14:00:00 27,7 20,3 8 4 NNW 1017,6 10 -
19.09.2020 13:00:00 27,0 20,0 5 3 NNW - 10 -
19.09.2020 12:00:00 27,0 21,0 4 2 - - 10 -
19.09.2020 11:00:00 26,5 21,0 5 3 W 1018,7 10 0,0
19.09.2020 10:00:00 26,0 21,0 5 3 W - 10 -
19.09.2020 09:00:00 25,0 19,0 5 3 S - 10 -
19.09.2020 08:00:00 22,6 19,0 8 4 SSE 1017,4 10 -
19.09.2020 07:00:00 23,0 20,0 9 5 SSE - 10 -
19.09.2020 06:00:00 23,0 20,0 9 5 SSE - 10 -
19.09.2020 05:00:00 23,2 20,2 8 4 SSE 1017,1 10 0,0
19.09.2020 04:00:00 23,0 20,0 4 2 S - 10 -
19.09.2020 03:00:00 23,0 19,0 9 5 SSE - 10 -
19.09.2020 02:00:00 23,3 19,4 9 5 SSE 1017,5 10 -

tt = temperature
td = dewpoint
ff = wind speed
dd = wind direction
ppp = reduced air pressure
vv = visibility
rr = precipitation

Next stations